Date,TemperatureHighF,TemperatureAvgF,TemperatureLowF,DewpointHighF,DewpointAvgF,DewpointLowF,HumidityHigh,HumidityAvg,HumidityLow,PressureMaxIn,PressureMinIn,WindSpeedMaxMPH,WindSpeedAvgMPH,GustSpeedMaxMPH,PrecipitationSumIn
2014-1-1,82.0,75.9,72.9,74.8,70.4,64.9,92,83,72,30.11,29.91,8,3,17,0.12
2014-1-2,87.3,77.0,68.7,72.4,68.8,65.4,96,78,52,29.91,29.74,8,3,20,0.01
2014-1-3,74.7,66.9,61.3,71.2,56.1,43.5,89,69,48,30.06,29.75,9,3,22,0.00
2014-1-4,74.1,70.0,61.5,69.7,63.8,54.4,92,81,67,30.04,29.92,5,2,15,0.06
2014-1-5,83.5,76.1,70.0,74.4,69.9,66.2,91,81,68,29.94,29.81,9,3,21,0.12
2014-1-6,85.6,73.7,60.1,74.6,65.0,39.2,96,76,45,30.07,29.83,8,3,21,0.00
2014-1-7,61.2,55.3,50.9,50.5,41.5,24.8,82,61,32,30.17,30.06,8,4,21,0.00
2014-1-8,70.0,63.1,52.5,66.1,60.4,47.8,96,91,82,30.17,30.06,8,4,21,0.13
2014-1-9,77.7,73.6,69.8,73.3,70.4,65.8,96,90,84,30.10,29.99,8,4,20,0.08
2014-1-10,81.5,75.7,70.0,73.8,71.3,68.2,96,87,71,30.04,29.93,9,3,21,0.00
2014-1-11,85.8,78.2,73.9,73.4,71.8,70.1,95,81,63,29.98,29.84,9,4,18,0.00
2014-1-12,82.9,73.7,64.6,71.4,64.2,57.1,92,74,43,30.04,29.88,5,2,14,0.00
2014-1-13,82.8,73.5,63.9,71.0,66.9,59.3,92,81,63,30.02,29.90,7,2,16,0.00
2014-1-14,85.3,75.5,67.5,73.9,68.2,65.7,95,79,55,29.90,29.80,8,2,18,0.00
2014-1-15,71.6,67.2,59.5,67.9,60.2,53.3,93,79,63,29.90,29.79,8,3,16,0.14
2014-1-16,64.8,58.5,48.9,55.7,44.1,26.6,86,62,25,30.02,29.80,12,4,23,0.01
2014-1-17,70.2,56.6,44.1,46.9,42.1,36.8,83,60,36,30.07,29.95,4,2,11,0.00
2014-1-18,72.0,58.7,49.3,52.7,43.3,33.6,85,59,28,30.10,30.00,8,2,17,0.00
2014-1-19,74.1,56.9,42.8,48.8,40.7,33.2,78,59,24,30.14,30.01,5,2,13,0.00
2014-1-20,79.5,66.1,54.3,59.7,55.4,48.5,91,70,46,30.06,29.90,7,2,14,0.00
2014-1-21,76.1,66.9,61.9,62.8,59.1,56.7,86,77,59,29.94,29.75,9,4,23,0.00
2014-1-22,68.5,60.1,48.9,60.2,44.1,31.6,89,59,26,30.04,29.75,9,4,19,0.00
2014-1-23,74.1,59.0,45.7,54.9,46.8,35.9,81,65,45,30.15,30.02,5,2,14,0.00
2014-1-24,73.8,63.0,56.5,55.7,52.6,50.2,85,70,49,30.24,30.09,4,2,13,0.00
2014-1-25,79.0,65.5,53.6,62.0,55.6,48.9,87,72,48,30.09,29.91,6,2,12,0.00
2014-1-26,81.5,69.1,56.8,63.2,58.5,50.3,92,71,35,29.96,29.84,6,2,12,0.00
2014-1-27,86.5,73.6,61.5,68.2,62.7,58.3,91,71,41,29.91,29.80,6,2,14,0.00
2014-1-28,83.3,73.1,62.6,69.9,65.5,59.6,92,78,56,29.95,29.83,8,2,14,0.00
2014-1-29,79.5,70.0,65.1,73.2,66.8,62.6,94,89,75,29.95,29.85,5,2,11,0.12
2014-1-30,70.7,66.6,63.3,67.0,64.4,60.4,97,93,84,29.97,29.88,4,2,11,0.32
2014-1-31,82.8,75.0,66.6,75.2,71.7,65.7,100,90,69,29.95,29.86,7,2,14,0.89
2014-2-1,84.6,76.6,70.7,75.0,70.9,68.5,96,84,61,30.01,29.92,8,2,17,0.01
2014-2-2,83.1,76.2,70.2,73.4,70.3,67.2,94,82,66,30.03,29.93,9,3,17,0.04
2014-2-3,85.3,78.4,74.5,73.3,71.5,63.8,89,80,66,30.06,29.93,8,4,19,0.00
2014-2-4,83.5,77.9,73.9,74.3,71.4,69.6,90,81,65,30.09,30.00,8,4,21,0.09
2014-2-5,85.5,77.5,72.1,73.7,71.3,68.7,93,82,59,30.05,29.95,9,3,17,0.40
2014-2-6,85.5,77.4,71.6,77.6,71.0,68.4,96,82,62,30.06,29.97,6,2,14,0.00
2014-2-7,83.7,75.5,69.8,72.2,69.4,67.5,93,82,64,30.09,30.00,4,1,11,0.00
2014-2-8,89.6,77.1,69.3,74.5,68.5,64.2,95,77,46,30.05,29.94,7,2,14,0.00
2014-2-9,82.9,71.9,66.2,69.9,65.5,60.4,93,81,62,30.04,29.94,5,2,11,0.00
2014-2-10,83.1,73.1,64.8,68.7,64.9,61.2,91,76,57,30.04,29.94,6,2,11,0.00
2014-2-11,88.2,76.9,68.2,71.9,66.8,62.9,91,73,43,30.03,29.93,6,2,14,0.00
2014-2-12,83.5,74.3,65.3,70.9,66.1,60.9,89,76,59,30.00,29.78,11,4,26,0.33
2014-2-13,77.7,69.0,58.6,67.6,59.7,50.0,93,74,50,29.93,29.69,12,6,27,0.02
2014-2-14,72.9,61.9,50.4,52.3,46.9,36.6,85,62,28,30.03,29.91,4,2,9,0.00
2014-2-15,82.6,67.2,54.9,63.8,56.2,51.2,91,70,43,30.08,29.91,11,3,24,0.00
2014-2-16,80.1,66.0,51.4,57.5,51.9,45.6,85,63,31,30.14,30.04,4,1,12,0.00
2014-2-17,81.0,69.5,59.0,61.2,57.4,54.2,85,67,49,30.17,30.08,6,2,14,0.00
2014-2-18,81.9,71.6,60.8,67.0,59.8,56.1,90,69,42,30.19,30.10,6,2,14,0.00
2014-2-19,82.9,73.6,64.4,67.0,63.3,60.3,90,72,52,30.14,30.03,7,2,23,0.00
2014-2-20,84.6,77.0,70.3,71.7,67.4,63.7,84,73,55,30.13,30.03,8,4,19,0.00
2014-2-21,86.2,79.1,75.2,72.3,71.2,70.2,87,77,61,30.07,29.98,10,5,21,0.00
2014-2-22,87.1,79.7,70.7,75.5,69.8,67.4,93,73,55,30.07,29.95,6,3,16,0.00
2014-2-23,82.4,82.4,82.4,69.5,69.5,69.5,65,65,65,29.96,29.96,4,4,10,0.00
2014-2-24,82.4,82.4,82.4,69.5,69.5,69.5,65,65,65,29.96,29.96,4,4,10,0.00
2014-2-25,82.4,82.4,82.4,69.5,69.5,69.5,65,65,65,29.96,29.96,4,4,10,0.00
2014-2-26,82.4,82.4,82.4,69.5,69.5,69.5,65,65,65,29.96,29.96,4,4,10,0.00
2014-2-27,82.4,82.4,82.4,69.5,69.5,69.5,65,65,65,29.96,29.96,4,4,10,0.00
2014-2-28,82.4,78.5,61.9,69.5,66.4,54.9,82,66,62,30.10,29.96,4,4,10,0.20
2014-3-1,82.6,70.8,59.2,66.3,59.7,55.6,92,70,46,30.18,30.06,5,2,12,0.00
2014-3-2,82.6,72.7,61.7,70.8,61.2,58.7,91,69,47,30.22,30.10,7,2,16,0.00
2014-3-3,85.1,75.2,64.4,72.2,62.6,58.0,93,67,44,30.11,30.00,8,2,14,0.00
2014-3-4,84.6,74.9,64.2,71.7,64.1,60.9,92,71,50,30.10,29.99,5,2,12,0.00
2014-3-5,86.0,75.9,68.0,74.8,67.1,64.4,92,75,53,30.06,29.95,8,2,16,0.00
2014-3-6,88.5,75.1,69.8,75.2,67.9,64.5,95,80,48,30.01,29.80,19,4,37,0.21
2014-3-7,82.8,73.6,61.9,72.2,61.8,52.8,94,69,42,30.05,29.80,13,6,27,0.02
2014-3-8,77.0,66.4,57.9,60.9,55.4,50.1,87,68,48,30.16,30.03,5,2,13,0.00
2014-3-9,81.1,71.7,60.8,71.6,62.0,58.8,95,73,51,30.19,30.10,5,2,13,0.00
2014-3-10,84.0,74.5,65.1,69.4,62.6,59.8,89,69,46,30.14,29.98,6,2,13,0.00
2014-3-11,82.8,74.7,63.5,70.4,64.0,59.9,90,70,50,30.06,29.88,8,3,17,0.00
2014-3-12,87.4,78.3,69.4,72.8,67.3,64.1,90,71,47,29.92,29.77,10,4,24,0.00
2014-3-13,81.3,72.1,62.2,69.5,57.1,45.2,83,61,43,30.18,29.87,8,4,18,0.00
2014-3-14,76.6,68.7,59.2,58.2,52.7,45.9,75,57,46,30.28,30.16,8,3,18,0.00
2014-3-15,84.0,73.0,62.2,68.6,58.6,54.8,90,63,41,30.20,30.07,7,2,16,0.00
2014-3-16,82.0,75.7,70.5,66.8,62.8,59.5,76,65,52,30.08,29.85,12,5,28,0.00
2014-3-17,87.6,80.1,73.9,71.8,69.5,66.8,87,71,52,29.87,29.75,10,6,24,0.00
2014-3-18,80.4,76.1,68.2,72.5,65.4,58.0,89,70,51,30.04,29.72,12,5,30,0.19
2014-3-19,88.0,74.6,65.1,69.7,64.1,61.1,91,71,53,30.10,30.00,7,2,14,0.00
2014-3-20,86.2,76.1,68.9,72.1,67.5,63.5,89,75,58,30.08,29.97,7,3,17,0.00
2014-3-21,84.0,74.5,64.0,72.4,66.5,61.4,94,77,60,30.09,29.98,8,3,19,0.00
2014-3-22,84.6,77.9,73.4,73.6,69.6,64.5,86,76,64,30.11,29.99,8,4,19,0.19
2014-3-23,94.1,80.8,70.3,74.0,67.0,63.4,89,65,45,30.08,29.95,9,3,19,0.00
2014-3-24,80.6,73.9,68.0,71.3,68.1,65.3,93,82,67,30.07,29.92,4,2,13,0.12
2014-3-25,83.1,72.4,65.3,71.7,66.7,53.1,96,83,59,30.04,29.84,8,4,18,0.30
2014-3-26,73.8,65.0,56.5,54.6,49.4,41.6,76,58,33,30.28,30.03,8,3,19,0.00
2014-3-27,79.2,70.9,59.9,63.3,57.9,53.6,83,64,43,30.32,30.19,9,4,20,0.00
2014-3-28,83.1,76.5,72.0,70.1,64.8,60.7,82,67,52,30.22,30.08,11,6,25,0.00
2014-3-29,83.7,77.7,70.5,74.3,71.4,66.2,89,81,68,30.12,29.95,12,5,26,0.32
2014-3-30,82.2,73.4,63.1,68.1,58.8,43.9,91,64,29,30.09,29.91,7,3,16,0.00
2014-3-31,82.2,71.6,60.1,63.6,58.6,53.6,82,65,43,30.17,30.07,6,2,13,0.00
2014-4-1,89.8,73.9,62.4,72.5,61.3,58.4,92,67,39,30.20,30.11,6,2,14,0.00
2014-4-2,89.6,74.1,62.6,69.8,60.9,57.9,89,66,41,30.21,30.13,6,3,16,0.00
2014-4-3,82.6,78.4,69.3,64.6,62.1,59.9,74,58,51,30.18,30.11,6,4,13,0.00
2014-4-4,82.6,82.6,82.6,62.7,62.7,62.7,51,51,51,30.16,30.16,5,5,13,0.00
2014-4-5,82.6,82.6,82.6,62.7,62.7,62.7,51,51,51,30.16,30.16,5,5,13,0.00
2014-4-6,82.6,82.6,82.6,62.7,62.7,62.7,51,51,51,30.16,30.16,5,5,13,0.00
2014-4-7,82.6,82.6,82.6,62.7,62.7,62.7,51,51,51,30.16,30.16,5,5,13,0.00
2014-4-8,82.6,82.6,82.6,62.7,62.7,62.7,51,51,51,30.16,30.16,5,5,13,0.00
2014-4-9,88.0,79.0,66.9,65.1,57.8,50.6,82,49,34,30.19,30.02,12,5,29,0.14
2014-4-10,83.3,73.1,63.9,61.4,55.7,50.6,74,56,36,30.29,30.17,8,3,20,0.00
2014-4-11,86.9,74.5,65.8,69.3,63.6,57.9,85,70,51,30.27,30.15,6,2,16,0.01
2014-4-12,88.9,77.8,68.0,70.2,64.6,60.3,89,65,46,30.21,30.11,7,3,19,0.00
2014-4-13,75.6,74.2,71.8,72.9,69.7,65.1,94,86,72,30.13,30.02,8,3,16,1.48
2014-4-14,87.4,79.6,71.2,79.3,72.0,69.5,95,79,58,30.03,29.93,8,4,17,0.00
2014-4-15,88.5,79.5,72.7,76.1,72.5,69.9,95,80,57,29.97,29.85,8,3,18,0.43
2014-4-16,83.7,76.5,72.0,73.9,70.7,67.7,96,83,63,30.11,29.95,6,2,14,0.12
2014-4-17,86.2,76.9,73.8,73.9,72.3,70.7,95,86,66,30.18,30.07,7,3,18,0.94
2014-4-18,85.8,78.8,72.9,73.8,71.9,69.1,96,80,62,30.13,29.98,10,5,21,0.04
2014-4-19,90.9,80.1,71.4,76.1,70.1,61.5,93,73,48,30.02,29.90,10,4,19,0.20
2014-4-20,82.2,73.2,67.3,65.3,62.1,59.1,80,69,53,30.07,29.96,6,3,12,0.00
2014-4-21,86.7,75.1,63.5,66.9,63.7,59.0,88,69,48,30.08,29.95,7,2,13,0.00
2014-4-22,87.3,76.6,68.5,69.5,66.7,64.2,88,73,49,30.00,29.87,4,2,10,0.00
2014-4-23,89.2,78.9,67.1,70.8,66.2,62.8,87,67,43,30.00,29.90,5,3,13,0.00
2014-4-24,94.5,79.8,68.0,71.7,67.2,63.6,89,67,47,30.05,29.95,7,3,14,0.00
2014-4-25,94.8,81.8,71.1,72.9,69.1,64.8,87,67,41,30.06,29.94,6,2,14,0.00
2014-4-26,94.3,82.4,70.7,73.7,69.8,65.5,88,67,47,30.05,29.95,6,2,18,0.00
2014-4-27,92.5,83.0,73.0,76.6,68.0,59.6,90,63,35,30.06,29.98,7,3,14,0.00
2014-4-28,90.1,83.3,78.1,74.1,70.7,66.0,84,67,45,30.03,29.93,9,5,18,0.00
2014-4-29,92.1,83.7,78.6,76.9,73.7,70.9,87,72,56,30.06,29.91,10,5,21,0.00
2014-4-30,91.6,83.8,78.6,76.7,73.8,67.9,87,73,49,30.10,29.99,9,4,18,0.00
2014-5-1,90.0,82.7,78.1,76.5,72.9,69.2,87,73,55,30.08,29.98,10,4,22,0.00
2014-5-2,90.5,83.1,77.0,74.6,71.0,64.4,87,68,50,30.03,29.89,10,4,19,0.00
2014-5-3,90.0,79.1,75.2,76.0,72.0,70.0,90,80,54,30.03,29.94,6,2,15,0.02
2014-5-4,88.3,79.3,69.6,72.6,64.5,55.7,91,64,34,30.10,29.99,6,3,14,0.00
2014-5-5,94.3,79.9,68.2,71.6,63.9,58.3,88,61,40,30.10,30.01,7,2,16,0.00
2014-5-6,96.8,80.0,68.2,73.1,66.6,63.5,90,66,43,30.08,30.01,7,2,17,0.00
2014-5-7,91.4,82.5,75.9,70.5,68.3,66.3,76,63,46,30.17,30.03,7,5,21,0.00
2014-5-8,89.6,82.7,77.2,71.3,69.0,67.1,75,64,50,30.22,30.13,8,5,19,0.00
2014-5-9,89.1,82.8,77.7,71.1,69.0,65.7,74,64,48,30.22,30.12,9,6,21,0.00
2014-5-10,87.6,81.6,77.4,73.4,70.9,69.0,78,70,59,30.19,30.09,11,5,21,0.00
2014-5-11,88.7,82.0,78.1,72.1,69.6,62.3,79,67,48,30.18,30.08,7,4,19,0.00
2014-5-12,90.1,82.5,76.1,73.8,70.5,67.4,85,68,50,30.16,30.08,8,5,21,0.05
2014-5-13,88.3,81.1,75.2,78.9,73.6,70.4,91,78,65,30.10,30.01,8,5,20,0.30
2014-5-14,88.5,81.7,74.5,79.1,72.9,69.7,92,75,59,30.09,30.00,12,5,29,0.15
2014-5-15,87.3,77.9,75.0,78.6,74.6,72.4,94,90,70,30.06,29.95,8,3,17,0.64
2014-5-16,82.8,75.5,69.3,76.6,68.0,51.1,96,79,45,30.11,29.97,4,2,12,0.01
2014-5-17,88.3,77.0,65.7,64.3,60.6,56.6,79,58,42,30.14,30.07,8,4,20,0.00
2014-5-18,87.6,79.0,71.2,66.5,63.3,59.8,73,59,47,30.15,30.09,8,4,21,0.00
2014-5-19,89.8,80.4,74.1,67.3,64.8,62.2,71,60,43,30.18,30.10,8,5,21,0.00
2014-5-20,88.3,80.6,73.4,69.0,65.5,62.3,76,61,45,30.22,30.14,7,4,18,0.00
2014-5-21,91.8,80.5,73.4,66.2,64.2,61.2,72,58,38,30.21,30.14,7,3,16,0.00
2014-5-22,93.6,80.5,69.4,73.5,65.4,59.5,89,62,43,30.18,30.08,5,2,13,0.00
2014-5-23,95.7,83.2,70.7,74.3,69.1,66.8,90,65,43,30.14,30.04,6,2,15,0.00
2014-5-24,95.2,84.4,73.4,73.8,70.5,65.5,88,65,45,30.13,30.04,7,3,15,0.00
2014-5-25,92.7,83.2,74.1,75.9,71.3,66.8,89,69,46,30.16,30.05,6,2,14,0.00
2014-5-26,94.8,83.4,74.1,78.6,71.7,67.4,92,69,49,30.21,30.11,6,2,15,0.00
2014-5-27,93.2,83.4,76.3,75.1,71.3,64.0,87,68,44,30.18,30.08,7,3,16,0.00
2014-5-28,90.7,82.6,76.3,77.8,72.5,70.0,89,72,54,30.11,30.02,7,3,16,0.00
2014-5-29,87.6,77.6,73.8,79.4,73.2,70.5,93,87,72,30.09,29.99,10,2,20,0.69
2014-5-30,93.6,81.1,72.0,78.3,73.0,69.5,96,78,57,30.06,29.99,8,3,18,0.02
2014-5-31,90.3,83.0,76.3,77.5,73.5,71.8,89,74,59,30.06,29.99,6,3,15,0.00
2014-6-1,89.8,82.7,77.7,77.2,74.0,71.6,85,75,60,30.08,30.00,8,4,19,0.01
2014-6-2,82.9,79.5,76.6,75.7,73.0,69.5,91,80,70,30.13,30.02,7,4,19,0.12
2014-6-3,83.8,79.2,75.6,70.9,67.8,64.1,78,68,58,30.10,30.01,7,3,17,0.00
2014-6-4,87.3,79.8,74.5,73.0,70.2,67.5,89,73,57,30.03,29.95,6,3,15,0.02
2014-6-5,93.7,82.1,71.2,74.7,68.7,65.5,91,66,47,30.02,29.93,6,3,16,0.00
2014-6-6,98.8,84.3,72.1,76.5,70.4,66.1,91,66,43,30.03,29.93,7,2,17,0.00
2014-6-7,98.2,85.0,76.3,78.4,74.1,67.8,93,72,43,30.04,29.96,8,2,17,0.14
2014-6-8,94.1,81.0,74.5,78.4,73.0,67.7,91,77,53,30.05,29.95,7,2,15,0.01
2014-6-9,92.7,80.4,73.6,77.3,72.5,67.3,95,78,51,30.04,29.93,9,2,17,0.00
2014-6-10,93.2,79.5,74.1,77.8,73.3,66.5,92,82,52,30.09,30.00,6,1,14,0.34
2014-6-11,95.2,80.0,73.4,81.9,73.6,70.4,96,83,52,30.06,29.97,9,1,20,0.47
2014-6-12,78.3,75.7,73.4,74.7,73.0,68.9,93,91,73,30.13,30.02,4,1,10,0.47
2014-6-13,93.4,79.2,72.7,79.8,73.0,70.2,96,83,50,30.14,30.02,10,2,18,0.21
2014-6-14,91.4,80.9,72.3,80.0,74.0,70.8,97,81,60,30.17,30.06,7,2,17,0.01
2014-6-15,92.5,83.8,76.8,79.0,75.4,73.0,90,77,58,30.19,30.08,8,3,18,0.00
2014-6-16,91.8,83.8,77.2,80.3,73.3,68.1,93,72,50,30.21,27.18,6,3,15,0.00
2014-6-17,93.4,78.1,73.2,75.1,72.5,69.2,91,83,50,30.22,30.11,9,2,21,0.33
2014-6-18,84.2,77.7,73.8,76.8,73.4,70.5,96,87,70,30.17,30.10,6,1,15,0.02
2014-6-19,91.0,78.1,72.9,78.5,72.8,67.5,96,85,57,30.20,30.09,12,2,29,0.90
2014-6-20,95.0,79.2,72.0,79.8,72.8,70.1,97,82,54,30.15,30.08,6,1,14,0.24
2014-6-21,96.6,80.3,73.4,80.2,74.0,69.5,96,83,50,30.10,30.00,9,1,22,1.03
2014-6-22,96.1,81.5,73.9,82.3,74.2,68.4,97,80,47,30.08,29.97,7,2,18,0.25
2014-6-23,98.1,84.4,73.4,80.8,74.6,71.5,96,74,48,30.17,30.01,7,2,16,0.00
2014-6-24,96.6,85.7,76.6,77.7,74.5,71.9,91,71,48,30.21,30.13,7,2,13,0.00
2014-6-25,100.2,85.6,77.5,81.7,76.2,74.2,91,75,49,30.20,30.10,7,2,15,0.00
2014-6-26,100.6,85.0,75.9,81.0,75.3,73.2,94,74,48,30.18,30.04,6,2,15,0.00
2014-6-27,98.2,85.5,77.9,80.5,75.0,71.7,94,72,49,30.19,30.07,6,2,13,0.00
2014-6-28,99.9,86.6,76.3,79.2,73.9,70.4,91,68,45,30.21,30.11,6,2,15,0.00
2014-6-29,100.2,86.8,77.7,78.6,73.7,69.6,89,67,42,30.19,30.09,6,2,13,0.00
2014-6-30,95.7,85.1,75.9,78.2,74.6,72.7,91,72,52,30.12,29.96,7,3,16,0.00
2014-7-1,88.9,82.7,78.8,76.3,74.4,70.9,89,77,56,30.00,29.88,8,4,16,0.00
2014-7-2,97.2,81.8,75.0,79.6,75.3,71.3,94,82,53,30.07,29.91,13,2,24,0.91
2014-7-3,97.2,86.2,77.2,79.6,75.6,68.0,95,73,45,30.17,30.04,11,3,24,0.00
2014-7-4,95.7,83.2,76.3,79.5,75.1,68.6,90,77,55,30.20,30.13,12,2,32,0.07
2014-7-5,91.2,80.7,76.6,82.3,75.8,72.8,94,85,61,30.21,30.12,5,1,12,0.33
2014-7-6,85.8,79.0,75.6,78.2,75.6,73.1,94,89,78,30.17,30.08,6,1,15,0.45
2014-7-7,92.8,82.0,75.9,82.4,76.3,73.8,96,83,64,30.18,30.08,5,1,12,0.13
2014-7-8,97.3,82.7,76.3,79.2,75.9,72.5,95,81,51,30.22,30.12,7,2,17,0.11
2014-7-9,99.7,80.6,75.6,85.0,75.5,72.2,97,86,50,30.21,30.14,11,1,24,1.25
2014-7-10,96.4,80.4,74.7,84.4,75.2,70.0,100,85,56,30.20,30.12,7,1,18,0.18
2014-7-11,94.8,84.7,75.4,84.8,76.1,74.2,97,77,57,30.21,30.12,6,2,14,0.01
2014-7-12,95.0,85.1,77.7,81.2,76.0,73.4,93,75,55,30.19,30.12,7,3,18,0.15
2014-7-13,92.5,85.2,80.1,78.8,75.7,73.6,86,74,60,30.16,30.10,7,4,17,0.00
2014-7-14,100.4,85.0,78.4,83.3,75.6,72.0,93,74,48,30.16,30.07,6,2,14,0.01
2014-7-15,99.0,83.2,77.7,81.6,75.6,72.5,93,79,48,30.10,30.02,8,1,19,0.12
2014-7-16,95.5,81.9,77.4,80.6,75.6,73.7,91,82,53,30.08,30.00,10,1,21,0.37
2014-7-17,95.7,80.8,74.8,80.5,75.7,71.7,95,85,56,30.14,30.01,11,1,24,0.50
2014-7-18,101.1,86.5,76.3,83.4,76.4,73.6,95,74,49,30.16,30.05,6,2,12,0.00
2014-7-19,99.9,85.5,77.9,82.7,76.8,74.3,93,76,52,30.15,30.06,5,1,11,0.25
2014-7-20,99.5,86.8,78.3,82.8,76.5,74.1,93,73,50,30.13,30.05,5,2,13,0.00
2014-7-21,93.6,82.4,78.3,79.6,76.3,73.9,92,83,56,30.12,30.04,8,1,17,0.06
2014-7-22,101.1,82.9,77.4,84.2,77.1,74.3,95,84,50,30.14,30.04,9,1,18,0.53
2014-7-23,99.3,83.5,77.9,84.8,77.1,74.5,96,82,57,30.17,30.08,8,2,17,0.31
2014-7-24,101.7,84.6,77.7,80.8,76.5,74.7,94,78,47,30.14,30.05,6,1,14,0.56
2014-7-25,104.7,87.2,76.8,84.7,76.2,72.0,95,72,43,30.16,30.07,6,2,12,0.00
2014-7-26,99.9,84.9,79.3,84.0,76.9,73.8,93,78,53,30.19,30.08,4,1,11,0.00
2014-7-27,102.6,87.9,78.1,82.2,75.6,72.9,92,69,46,30.17,30.09,6,2,16,0.00
2014-7-28,102.0,90.2,80.6,82.0,75.4,69.4,90,64,41,30.15,30.05,6,2,13,0.00
2014-7-29,99.3,87.8,80.8,82.7,76.0,70.5,90,70,45,30.09,30.00,10,2,19,0.05
2014-7-30,101.1,83.8,77.0,82.8,76.8,71.8,93,80,51,30.06,29.98,8,2,17,0.70
2014-7-31,94.5,82.5,77.9,80.7,76.5,74.4,93,83,57,30.08,29.99,7,2,17,0.13
2014-8-1,100.0,85.8,77.4,84.7,76.4,74.7,94,75,50,30.07,29.98,6,2,16,0.25
2014-8-2,103.3,85.2,78.1,86.0,78.0,75.3,96,80,49,30.03,29.94,5,1,12,0.25
2014-8-3,87.8,81.2,73.9,81.4,77.3,71.0,95,88,71,30.04,29.91,10,2,19,0.57
2014-8-4,98.1,79.8,74.8,82.8,75.7,73.4,96,88,52,30.09,29.92,7,2,17,0.66
2014-8-5,96.8,84.6,75.6,82.6,75.8,74.1,96,77,55,30.14,30.03,9,2,17,0.00
2014-8-6,103.5,85.9,77.4,83.0,77.0,74.4,93,76,47,30.13,30.05,5,1,11,0.17
2014-8-7,104.4,86.4,75.0,83.9,76.1,69.9,93,74,46,30.09,29.98,8,2,16,0.43
2014-8-8,96.4,84.4,77.5,80.8,76.5,73.6,95,78,55,30.12,30.03,6,2,14,0.01
2014-8-9,101.8,87.7,79.0,84.2,75.8,71.4,93,70,45,30.14,30.06,7,2,14,0.00
2014-8-10,103.5,87.1,78.6,81.3,75.9,69.2,90,71,46,30.14,30.05,11,2,28,0.32
2014-8-11,102.6,87.1,77.2,82.8,74.8,71.5,93,69,44,30.14,30.04,7,2,15,0.00
2014-8-12,101.7,86.1,78.6,80.2,74.9,71.0,89,70,47,30.10,30.03,7,2,17,0.00
2014-8-13,103.1,86.3,78.4,81.0,75.8,73.0,91,73,48,30.10,30.02,8,2,21,0.02
2014-8-14,91.8,81.0,79.2,82.9,76.9,75.7,92,87,73,30.10,30.03,2,0,5,0.00
2014-8-15,78.4,77.1,76.1,76.0,75.0,74.0,95,93,91,30.13,30.08,3,1,7,0.60
2014-8-16,95.2,81.9,75.9,85.3,75.7,71.2,96,83,51,30.18,30.06,8,1,17,0.07
2014-8-17,96.3,83.3,76.8,85.1,76.9,74.3,96,82,62,30.17,30.10,5,1,11,0.06
2014-8-18,98.2,86.7,76.6,82.8,76.3,72.2,95,73,50,30.14,30.02,6,2,14,0.00
2014-8-19,102.6,88.3,79.3,82.5,76.7,71.4,92,70,46,30.10,30.01,6,2,12,0.00
2014-8-20,102.0,87.5,79.3,82.0,76.7,73.3,90,71,50,30.15,30.04,5,1,13,0.00
2014-8-21,93.7,85.9,79.3,84.4,77.2,74.6,94,76,57,30.17,30.09,6,1,14,0.00
2014-8-22,99.0,85.9,79.5,82.7,77.0,74.7,91,75,53,30.16,30.03,6,2,14,0.85
2014-8-23,99.9,86.5,78.4,84.9,76.9,74.6,94,74,57,30.06,29.91,5,2,14,0.13
2014-8-24,99.9,88.3,78.3,84.8,75.6,72.0,94,68,47,29.93,29.80,5,2,13,0.00
2014-8-25,88.9,88.9,88.9,75.2,75.2,75.2,64,64,64,29.80,29.80,2,2,6,0.00
2014-8-26,93.7,88.6,81.1,76.0,73.7,70.0,80,62,49,30.22,29.80,8,3,21,0.13
2014-8-27,95.2,85.7,77.4,78.5,73.6,70.8,87,68,49,30.21,30.09,7,2,82,0.00
2014-8-28,91.8,85.2,80.2,82.0,76.4,71.7,84,75,63,30.25,30.15,6,2,14,0.14
2014-8-29,94.1,85.8,79.2,82.1,76.9,72.8,92,76,53,30.33,30.20,6,2,15,0.00
2014-8-30,95.9,88.2,81.5,79.2,77.1,70.8,84,71,54,30.35,30.26,7,4,17,0.01
2014-8-31,94.8,86.6,79.9,79.4,75.4,70.8,86,70,54,30.34,30.27,8,3,20,0.00
2014-9-1,95.7,87.4,82.2,78.7,75.5,72.8,83,69,52,30.33,30.25,6,3,15,0.00
2014-9-2,93.7,86.2,79.2,79.4,74.5,71.8,87,69,53,30.31,30.21,6,3,15,0.00
2014-9-3,91.6,82.7,77.7,79.4,74.3,70.5,90,77,55,30.28,30.17,8,2,17,0.08
2014-9-4,93.9,83.5,76.5,81.0,74.7,69.2,93,76,48,30.35,30.24,6,1,12,0.04
2014-9-5,93.0,85.2,78.4,83.2,77.3,74.6,93,78,60,30.34,30.24,8,2,17,0.14
2014-9-6,93.6,82.6,80.1,81.9,77.8,75.7,93,85,64,30.29,30.18,7,1,14,0.13
2014-9-7,90.0,82.9,78.6,81.9,75.8,72.8,94,80,61,30.26,30.17,7,2,17,0.00
2014-9-8,95.7,84.5,76.1,82.4,74.9,70.8,95,75,53,30.29,30.20,8,3,17,0.04
2014-9-9,93.6,85.8,77.7,79.4,74.3,71.7,87,70,52,30.28,30.20,7,3,22,0.01
2014-9-10,96.4,85.9,80.6,76.3,73.9,71.8,82,68,51,30.24,30.16,7,3,16,0.00
2014-9-11,87.4,80.5,76.5,80.0,75.2,73.0,95,84,64,30.24,30.16,3,1,11,0.43
2014-9-12,89.1,80.4,73.6,78.7,73.9,70.7,97,82,57,30.24,30.12,10,4,26,1.48
2014-9-13,95.4,80.0,74.1,82.6,75.3,72.0,97,86,60,30.32,30.20,8,2,20,1.58
2014-9-14,91.2,81.2,74.7,81.0,73.9,71.1,97,80,54,30.37,30.26,6,2,14,0.01
2014-9-15,96.4,84.7,76.1,83.1,74.8,71.3,95,74,55,30.38,30.29,5,2,12,0.00
2014-9-16,101.1,83.0,77.9,84.0,76.5,73.2,94,82,51,30.35,30.20,4,1,9,0.08
2014-9-17,98.2,82.3,74.8,81.8,74.5,71.3,96,79,52,30.24,30.10,8,1,14,0.11
2014-9-18,101.5,83.3,75.6,81.3,75.1,72.0,94,78,49,30.17,30.08,6,2,17,0.00
2014-9-19,97.3,81.0,77.2,84.1,76.1,74.0,94,86,55,30.19,30.10,5,1,13,0.34
2014-9-20,91.8,80.5,76.1,83.8,75.8,72.9,96,87,56,30.19,30.08,6,2,19,0.58
2014-9-21,96.6,81.1,73.8,83.4,74.4,70.8,96,82,52,30.27,30.14,5,2,14,0.53
2014-9-22,95.5,80.7,75.2,81.6,75.5,73.7,96,85,60,30.28,30.16,6,1,12,0.00
2014-9-23,90.0,79.5,75.4,80.4,74.2,70.6,95,84,68,30.26,30.14,11,2,22,0.01
2014-9-24,88.9,80.8,74.7,78.9,75.1,73.2,97,83,64,30.27,30.18,6,1,14,0.13
2014-9-25,91.8,81.3,74.8,84.9,76.7,72.8,97,86,69,30.27,30.18,6,2,15,0.66
2014-9-26,90.9,82.5,76.5,81.0,76.7,74.3,96,83,63,30.22,30.13,6,2,15,0.04
2014-9-27,97.0,84.9,77.9,83.2,76.6,73.2,93,77,56,30.23,30.13,6,2,16,0.35
2014-9-28,94.3,83.9,77.5,84.6,76.7,74.7,96,80,61,30.21,30.12,6,2,15,0.01
2014-9-29,100.2,83.6,77.0,83.7,75.7,73.4,94,79,49,30.18,30.03,8,2,18,0.40
2014-9-30,96.6,82.7,75.9,84.1,76.7,74.6,96,83,60,30.10,30.03,8,2,22,0.09
2014-10-1,96.4,84.7,77.0,83.1,76.8,74.6,95,78,58,30.21,30.07,9,2,17,0.04
2014-10-2,101.3,86.4,77.7,82.5,76.6,73.2,94,74,49,30.26,30.15,6,2,12,0.00
2014-10-3,103.8,85.0,77.4,84.3,76.9,73.5,93,78,47,30.26,30.15,4,1,11,0.31
2014-10-4,97.3,82.9,76.3,83.8,76.0,72.4,96,81,51,30.21,30.04,9,3,17,0.34
2014-10-5,88.0,78.3,69.1,74.6,66.9,62.3,91,70,44,30.22,30.10,4,2,11,0.01
2014-10-6,88.3,79.6,71.2,74.5,69.4,66.7,90,72,53,30.29,30.18,7,1,14,0.00
2014-10-7,87.1,81.1,77.0,76.4,73.3,70.8,88,78,64,30.32,30.21,6,1,14,0.00
2014-10-8,89.4,82.1,75.6,80.0,74.6,72.2,94,79,63,30.33,30.23,5,2,12,0.00
2014-10-9,91.8,83.3,76.1,76.7,72.6,67.9,88,71,53,30.29,30.20,6,2,15,0.00
2014-10-10,90.9,84.0,77.7,74.1,71.4,68.1,83,67,50,30.26,30.17,7,3,17,0.00
2014-10-11,91.6,83.8,78.4,75.2,71.7,67.4,82,68,49,30.24,30.17,5,2,13,0.00
2014-10-12,91.2,82.8,75.7,77.3,73.6,71.2,90,74,57,30.28,30.20,6,3,14,0.00
2014-10-13,89.4,83.5,80.2,78.6,73.6,71.7,86,72,60,30.30,30.23,8,4,24,0.06
2014-10-14,90.9,84.1,79.0,77.3,75.3,71.9,85,75,62,30.25,30.14,8,4,21,0.02
2014-10-15,92.1,81.3,76.3,80.3,75.7,72.5,95,84,56,30.22,30.11,7,1,16,0.31
2014-10-16,88.0,79.8,72.3,76.5,67.6,62.2,94,69,45,30.19,30.08,6,2,14,0.00
2014-10-17,87.4,77.1,67.5,67.6,62.5,58.0,85,63,40,30.21,30.12,4,1,10,0.00
2014-10-18,90.9,77.7,67.6,73.7,66.0,61.8,93,70,42,30.21,30.12,4,1,10,0.00
2014-10-19,88.7,78.5,68.9,71.9,67.4,64.7,91,71,47,30.25,30.17,4,1,12,0.00
2014-10-20,89.1,79.6,70.9,73.6,69.1,64.3,91,72,46,30.26,30.15,5,2,14,0.00
2014-10-21,84.7,78.3,75.0,75.2,72.6,69.2,92,83,68,30.20,30.11,8,2,19,0.00
2014-10-22,87.1,78.3,73.4,75.3,72.7,70.8,95,84,63,30.19,30.11,4,1,8,0.51
2014-10-23,77.9,75.9,74.1,75.7,72.0,67.9,97,88,72,30.17,30.09,5,2,14,0.19
2014-10-24,80.8,77.9,73.9,71.7,70.1,68.6,87,77,69,30.14,30.03,8,4,18,0.02
2014-10-25,86.2,76.4,69.1,69.2,65.7,61.8,86,71,47,30.17,30.06,4,2,11,0.00
2014-10-26,84.7,75.8,68.9,68.3,64.0,57.7,86,68,44,30.25,30.10,3,1,11,0.00
2014-10-27,86.0,75.2,65.5,68.8,65.0,61.7,90,72,52,30.32,30.20,6,1,17,0.00
2014-10-28,87.6,77.6,68.7,70.8,67.5,65.0,90,72,53,30.36,30.29,7,2,19,0.00
2014-10-29,88.7,80.7,74.5,71.7,67.8,64.5,84,66,45,30.32,30.20,4,2,10,0.00
2014-10-30,88.9,78.8,70.7,73.3,68.0,63.5,92,71,45,30.21,30.08,4,1,11,0.00
2014-10-31,88.2,78.1,68.5,72.7,67.6,54.3,92,72,49,30.12,29.97,10,3,21,0.00
2014-11-1,79.3,68.4,57.7,61.7,52.2,37.5,86,58,34,30.36,30.11,12,5,24,0.00
2014-11-2,74.7,62.6,54.0,52.2,44.2,37.8,70,53,31,30.48,30.36,4,0,10,0.00
2014-11-3,78.6,69.4,59.4,59.8,54.3,47.5,70,59,48,30.51,30.42,7,2,21,0.00
2014-11-4,82.4,75.9,70.9,64.0,59.1,53.6,67,56,45,30.48,30.36,8,5,24,0.00
2014-11-5,84.0,77.6,74.1,70.8,66.4,62.8,85,69,56,30.41,30.29,10,5,22,0.11
2014-11-6,86.7,77.6,69.6,69.5,65.2,61.1,85,67,44,30.34,30.19,5,2,13,0.00
2014-11-7,86.9,76.2,67.6,69.9,66.3,62.6,90,73,50,30.21,30.10,4,1,11,0.00
2014-11-8,87.3,76.2,68.0,71.5,67.6,64.8,93,76,49,30.16,30.04,6,2,14,0.00
2014-11-9,74.5,70.6,67.6,72.7,68.0,65.8,95,92,84,30.12,30.03,4,1,10,0.40
2014-11-10,79.5,70.8,66.2,70.2,66.7,64.8,97,87,69,30.16,30.07,4,2,10,0.15
2014-11-11,82.8,71.9,62.2,65.8,61.5,56.8,95,73,43,30.17,30.08,7,3,17,0.01
2014-11-12,86.4,73.9,63.1,66.5,63.3,58.6,86,71,49,30.24,30.15,5,2,14,0.00
2014-11-13,87.8,76.3,67.5,71.0,66.6,63.8,93,74,46,30.26,30.15,4,1,9,0.00
2014-11-14,85.6,73.5,65.5,71.8,64.2,55.3,94,75,36,30.32,30.18,4,1,35,0.01
2014-11-15,81.0,70.7,64.9,68.5,64.5,62.1,92,81,61,30.40,30.30,2,1,9,0.00
2014-11-16,85.5,77.5,70.7,73.2,69.3,65.5,86,76,59,30.40,30.26,7,3,16,0.00
2014-11-17,88.9,82.5,76.1,77.9,74.1,71.2,95,77,58,30.26,30.13,8,4,17,0.04
2014-11-18,85.5,85.5,85.5,72.4,72.4,72.4,65,65,65,30.16,30.16,3,3,9,0.04
2014-11-19,85.5,67.4,56.5,72.4,61.5,54.2,93,82,65,30.16,29.84,4,2,11,0.31
2014-11-20,78.6,70.1,62.2,66.2,61.5,58.3,88,75,62,30.04,29.93,6,3,19,0.00
2014-11-21,73.9,71.7,69.8,69.0,66.9,63.1,95,85,71,30.05,29.95,11,4,20,0.09
2014-11-22,80.4,76.1,73.9,74.2,71.1,68.0,94,85,74,30.04,29.91,11,6,24,0.14
2014-11-23,83.5,79.6,76.6,76.4,74.4,72.9,90,84,76,29.91,29.76,11,5,23,0.01
2014-11-24,88.5,81.7,76.3,79.1,76.4,74.2,96,84,66,29.90,29.78,6,3,14,0.00
2014-11-25,86.2,81.1,78.6,77.0,75.3,72.7,94,83,67,29.89,29.76,10,5,24,0.00
2014-11-26,81.0,71.4,59.5,76.8,65.5,49.8,94,82,63,30.04,29.75,9,4,21,0.39
2014-11-27,79.7,64.9,56.1,56.9,49.8,40.5,83,61,34,30.12,29.98,5,2,14,0.00
2014-11-28,74.5,63.0,54.0,55.9,50.8,45.1,77,65,51,30.09,30.00,5,3,14,0.00
2014-11-29,78.1,66.7,55.6,60.3,55.6,50.9,88,69,49,30.10,30.01,6,2,17,0.00
2014-11-30,80.6,73.5,67.3,65.3,59.2,55.8,74,62,45,30.13,30.04,8,4,19,0.00
2014-12-1,82.2,74.9,70.5,69.2,66.8,63.7,92,76,62,30.12,30.02,9,4,22,0.14
2014-12-2,78.6,74.5,70.3,73.0,68.7,66.9,93,82,74,30.03,29.92,8,4,21,0.02
2014-12-3,85.3,76.3,71.6,69.3,68.0,66.1,87,76,55,30.00,29.91,7,3,17,0.00
2014-12-4,84.9,76.8,70.7,71.8,69.6,67.0,91,79,62,30.00,29.91,7,4,23,0.04
2014-12-5,83.1,75.8,71.4,74.6,71.2,68.5,95,86,68,30.06,29.95,8,3,19,0.78
2014-12-6,86.2,74.3,67.8,73.0,67.1,64.7,96,80,51,30.05,29.93,5,1,12,0.00
2014-12-7,87.3,72.0,65.8,72.1,66.2,61.9,94,83,56,29.94,29.84,6,2,13,0.00
2014-12-8,88.5,69.0,61.0,67.0,61.6,58.3,91,79,44,29.93,29.83,6,2,12,0.00
2014-12-9,75.6,65.2,57.2,62.9,58.8,51.1,93,80,59,29.90,29.80,7,4,17,0.00
2014-12-10,80.1,59.7,52.3,51.7,45.0,38.6,86,62,25,30.01,29.88,5,2,13,0.00
2014-12-11,76.5,60.9,50.2,56.9,52.3,47.4,93,75,47,30.06,29.94,2,0,9,0.01
2014-12-12,71.8,61.9,53.1,56.7,50.7,42.8,91,69,38,30.08,29.97,2,0,9,0.00
2014-12-13,82.0,65.3,55.9,59.6,53.3,48.8,83,67,38,29.99,29.88,4,1,12,0.00
2014-12-14,86.4,65.9,56.8,57.3,52.1,46.6,83,62,36,29.94,29.85,3,1,8,0.00
2014-12-15,83.1,66.9,56.5,58.8,54.3,49.6,86,66,38,29.98,29.88,3,1,8,0.00
2014-12-16,90.5,68.0,56.7,62.6,56.7,52.4,89,69,37,30.05,29.95,4,1,9,0.00
2014-12-17,90.9,68.9,56.1,63.7,57.8,52.9,91,70,37,30.06,29.92,4,1,9,0.00
2014-12-18,91.8,69.6,60.1,65.0,59.6,56.5,91,72,39,30.02,29.90,5,1,10,0.00
2014-12-19,81.7,68.6,58.3,65.0,59.9,54.1,89,75,53,29.96,29.86,5,1,13,0.00
2014-12-20,82.6,69.7,59.7,67.1,61.9,57.1,93,78,56,29.95,29.87,6,1,12,0.00
2014-12-21,81.7,71.8,63.3,70.4,65.2,61.0,94,81,62,29.95,29.86,6,1,13,0.00
2014-12-22,88.5,75.3,66.6,72.8,68.9,64.7,94,81,55,29.89,29.77,6,2,16,0.00
2014-12-23,84.2,76.3,69.1,75.5,70.5,67.2,95,83,64,29.83,29.75,9,3,20,0.00
2014-12-24,84.9,79.2,75.4,75.8,73.5,71.5,91,83,68,29.83,29.74,8,5,17,0.00
2014-12-25,82.4,71.5,69.4,75.1,65.1,55.8,94,81,58,30.05,29.80,9,2,17,0.30
2014-12-26,75.9,71.0,66.4,73.5,67.4,60.2,97,88,75,30.07,29.99,2,1,8,0.15
2014-12-27,84.9,75.3,69.4,76.3,70.9,68.3,100,87,61,30.13,30.02,5,1,11,0.00
2014-12-28,84.9,74.5,66.6,73.9,69.2,65.1,95,84,64,30.06,29.97,6,2,13,0.00
2014-12-29,85.1,76.3,69.8,76.2,70.3,68.1,96,82,65,30.02,29.94,7,2,15,0.01
2014-12-30,87.8,76.7,70.3,73.7,70.1,68.0,94,81,54,30.08,29.97,3,1,9,0.00
2014-12-31,81.9,74.4,71.4,73.2,70.8,69.2,95,89,71,30.10,30.00,4,1,11,0.02
2015-1-1,80.6,73.8,71.1,74.4,71.1,69.6,97,92,76,30.09,30.00,3,1,8,0.09
2015-1-2,84.6,76.8,70.7,76.6,72.2,69.5,100,86,67,30.13,30.04,7,2,14,0.25